Tracking 29892 objects as of 21-Nov-2024
HD Live streaming from Space Station
objects crossing your sky now

COSMOS 1275 DEB

Track COSMOS 1275 DEB now!
10-day predictions


NORAD ID: 42154
Int'l Code: 1981-053RS
Perigee: 920.0 km
Apogee: 1,112.0 km
Inclination: 82.8 °
Period: 105.3 minutes
Semi major axis: 7386 km
RCS: Unknown
Launch date: June 4, 1981
Source: Commonwealth of Independent States (former USSR) (CIS)
Launch site: PLESETSK MISSILE AND SPACE COMPLEX (PKMTR)

Note: This is SATELLITE DEBRIS
Your satellite tracking list
Your tracking list is empty




NASA's NSSDC Master Catalog

Two Line Element Set (TLE):
1 42154U 81053RS  24325.48210742  .00000778  00000-0  85460-3 0  9995
2 42154  82.8104  21.8760 0129956  91.6091 331.9001 13.67424826493133
Source of the keplerian elements: AFSPC